{"data":{"norad_id":68219,"epoch":"2026-05-25T03:07:02.489088Z","epoch_age_seconds":61148,"freshness":"FRESH","line1":"1 68219U 26053N   26145.12988992  .00017914  00000+0  55564-3 0  9997","line2":"2 68219  97.2864  20.5934 0001356  93.7041 266.4357 15.33459055 11933","mean_motion":15.33459055,"eccentricity":0.0001356,"inclination_deg":97.2864,"raan_deg":20.5934,"arg_perigee_deg":93.7041,"mean_anomaly_deg":266.4357,"bstar":0.00055564,"rev_number":1193,"period_min":93.905343954554,"perigee_km":464.57335964486,"apogee_km":466.42935436728,"semimajor_km":6843.6383570061,"source":"CELESTRAK","updated_at":"2026-05-25T13:38:21.879966Z"}}